[[{"header":{"parameterUnit":"m.s-1","parameterCategory":2,"la1":30.2991,"la2":30.254,"lo1":-89.0895,"lo2":-89.0444,"dy":0.0017,"dx":0.0017,"nx":28,"ny":28,"refTime":"2025-12-26T03:00:00:Z","depth":"0","parameterNumber":2,"parameterNumberName":"U-component_of_CURRENTS"},"data":[0,0,0,0,0,0,0,0,0,0,0,0,0,0,0,0,0,0,0,0,0,0,0,0,0,0,0,0,0,0,0,0,0,0,0,0,0,0,0,0,0,0,0,0,0,0,0,0,0,0,0,0,0,0,0,0,0,0,0.1563,0.1563,0,0.1516,0.1516,0.1515,0.1494,0.1495,0.1495,0.1496,0.1504,0.1503,0.1503,0,0,0,0,0,0,0,0,0,0,0,0,0,0.16,0.1599,0.1563,0.1563,0.1562,0.1517,0.1516,0.1514,0.1494,0.1495,0.1496,0.1496,0.1504,0.1503,0.1503,0,0,0,0,0,0,0,0,0,0,0,0,0,0.1568,0.1599,0.1563,0.155,0.1549,0.1517,0.1515,0.1514,0.1494,0.1495,0.1496,0.1496,0.1504,0.1503,0.1503,0.1487,0,0,0.1502,0.1502,0,0,0,0,0,0,0,0,0.1569,0.1566,0.1552,0.1551,0.155,0.1516,0.1532,0.1509,0.1494,0.151,0.1496,0.1497,0.1515,0.1514,0.1496,0.1487,0.1487,0.1502,0.1502,0.1502,0.1501,0,0,0,0,0,0,0,0.1572,0.1567,0.154,0.1552,0.155,0.1536,0.1531,0.1526,0.1507,0.1509,0.1508,0.151,0.1514,0.1497,0.1497,0.1487,0.1502,0.1502,0.1501,0.1501,0.1452,0.1451,0,0,0,0,0,0,0.1587,0.157,0.1542,0.1539,0.1566,0.1535,0.153,0.1522,0.1506,0.1505,0.151,0.1509,0.1497,0.1497,0.1497,0.1471,0.1502,0.1501,0.1501,0.1453,0.1452,0.1451,0,0,0,0,0,0,0.1588,0.1585,0.1543,0.1557,0.1552,0.1534,0.1525,0.1521,0.1509,0.1506,0.1506,0.1503,0.1498,0.1498,0.1486,0.1472,0.1501,0.1501,0.1455,0.1453,0.1451,0.1424,0,0,0,0,0,0,0.1589,0.1585,0.1578,0.1558,0.1552,0.1525,0.1525,0.152,0.1511,0.151,0.15,0.1501,0.1498,0.1487,0.1486,0.1472,0.15,0.1456,0.1454,0.1452,0.1427,0.1422,0.1418,0,0,0,0,0,0.159,0.1577,0.1578,0.1575,0.1545,0.1525,0.1519,0.1507,0.151,0.1498,0.149,0.1502,0.1473,0.1485,0.1485,0.1471,0.1457,0.1454,0.1452,0.1428,0.1423,0.1418,0,0,0,0,0,0,0.1577,0.1574,0.1574,0.1557,0.1546,0.1523,0.1513,0.1508,0.1489,0.1492,0.1489,0.1489,0.1473,0.1474,0.1487,0.1449,0.1466,0.1464,0.1449,0.1443,0.1439,0.145,0.15,0,0,0,0,0,0.1576,0.1572,0.1562,0.1548,0.1546,0.1531,0.1521,0.1514,0.15,0.1492,0.1486,0.1476,0.146,0.1455,0.1444,0.1425,0.1505,0.1414,0.141,0.1406,0.1413,0.1503,0.1509,0.1443,0.1443,0.1443,0,0,0.1564,0.1566,0.156,0.1547,0.1538,0.1519,0.1525,0.1513,0.1492,0.1498,0.1469,0.1465,0.1452,0.1426,0.1419,0.1427,0.1478,0.1403,0.14,0.1409,0.1501,0.1509,0.1515,0.1441,0.1441,0.1442,0,0,0.1541,0.1545,0.1532,0.1527,0.1522,0.1513,0.1513,0.1495,0.1483,0.1459,0.1454,0.1443,0.1419,0.1404,0.1393,0.1361,0.1454,0.1355,0.134,0.1427,0.1434,0.1442,0.1611,0.1633,0.135,0.135,0.135,0,0.1529,0.1515,0.1523,0.151,0.1509,0.1512,0.1495,0.1474,0.1452,0.145,0.1449,0.1424,0.1406,0.1385,0.1358,0.1353,0.1452,0.1362,0.1426,0.1434,0.1442,0.1613,0.1638,0.1348,0.1348,0.1349,0.1349,0,0.1496,0.1486,0.148,0.147,0.1464,0.1456,0.1443,0.1432,0.1429,0.1418,0.1408,0.1389,0.1387,0.1362,0.1341,0.1369,0.1443,0.1417,0.1448,0.1448,0.1628,0.1655,0.1346,0.1347,0.1347,0.1347,0,0,0.148,0.1461,0.1462,0.1462,0.1452,0.1449,0.142,0.1407,0.1415,0.1388,0.141,0.1343,0.1366,0.1355,0.1344,0.1384,0.1522,0.1417,0.1422,0.1604,0.18,0.1845,0.188,0.1518,0.1521,0.1523,0.1926,0,0.1458,0.1439,0.143,0.1413,0.141,0.1411,0.1392,0.1383,0.1387,0.141,0.1399,0.1416,0.1355,0.138,0.1403,0.1499,0.1582,0.1421,0.1756,0.1768,0.1821,0.1906,0.1863,0.2216,0.1953,0.1958,0.1961,0,0.1447,0.1437,0.1417,0.1417,0.1416,0.14,0.142,0.1405,0.1423,0.1434,0.145,0.1474,0.1525,0.148,0.1667,0.1579,0.1686,0.1756,0.1773,0.1838,0.186,0.2159,0.2275,0.215,0.2003,0.1999,0.1996,0,0.1476,0.1444,0.1438,0.1434,0.1415,0.1411,0.141,0.1416,0.1433,0.1484,0.1536,0.1586,0.167,0.177,0.1891,0.1814,0.2141,0.2066,0.2223,0.2232,0.2271,0.2277,0.2313,0.2218,0.2217,0.2216,0.2215,0,0.1486,0.1485,0.145,0.145,0.1456,0.1437,0.1461,0.1466,0.1502,0.1563,0.157,0.1661,0.1744,0.1916,0.1994,0.2231,0.225,0.2269,0.2333,0.2264,0.2264,0.2213,0.2166,0.2231,0.2228,0.2225,0.2222,0,0.1526,0.1502,0.1505,0.1479,0.1473,0.149,0.1503,0.153,0.1556,0.1656,0.1693,0.1796,0.2021,0.214,0.2371,0.2409,0.2562,0.2666,0.2619,0.2666,0.2631,0.2586,0.2705,0.2678,0.2928,0.2931,0.2934,0,0.1544,0.1545,0.1539,0.1556,0.1544,0.1554,0.1569,0.1568,0.1613,0.1747,0.1821,0.2037,0.2184,0.2553,0.2678,0.2914,0.2752,0.3001,0.2788,0.2664,0.2663,0.2512,0.2466,0.2883,0.2885,0.2887,0.2889,0,0.158,0.1585,0.1587,0.1621,0.1639,0.1654,0.168,0.1714,0.1755,0.1835,0.1993,0.2121,0.2449,0.2643,0.2923,0.3037,0.2865,0.3044,0.2915,0.2641,0.2485,0.2478,0.2635,0.2905,0.2903,0.2902,0.2901,0.29,0.1618,0.1644,0.166,0.1692,0.172,0.1753,0.1765,0.1808,0.1877,0.1987,0.2109,0.2275,0.253,0.2889,0.2997,0.3084,0.302,0.3001,0.2983,0.2859,0.2716,0.294,0.3244,0.3244,0.3244,0.3244,0.3245,0,0.1647,0.1681,0.1727,0.1761,0.1796,0.1794,0.1836,0.1846,0.192,0.2054,0.2165,0.24,0.2625,0.281,0.3003,0.2982,0.2867,0.2929,0.2661,0.2639,0.2864,0.2731,0.2933,0.2933,0.2934,0.2934,0.2934,0.2934,0.1665,0.1717,0.174,0.1807,0.1832,0.1848,0.1863,0.1894,0.1969,0.2089,0.2188,0.2292,0.2498,0.2759,0.2824,0.2813,0.2605,0.2583,0.2547,0.262,0.262,0.2619,0.2474,0.262,0.262,0.221,0.2208,0.2205]},{"header":{"parameterUnit":"m.s-1","parameterCategory":2,"la1":30.2991,"la2":30.254,"lo1":-89.0895,"lo2":-89.0444,"dy":0.0017,"dx":0.0017,"nx":28,"ny":28,"refTime":"2025-12-26T03:00:00:Z","depth":"0","parameterNumber":3,"parameterNumberName":"V-component_of_CURRENTS"},"data":[0,0,0,0,0,0,0,0,0,0,0,0,0,0,0,0,0,0,0,0,0,0,0,0,0,0,0,0,0,0,0,0,0,0,0,0,0,0,0,0,0,0,0,0,0,0,0,0,0,0,0,0,0,0,0,0,0,0,-0.0003,-0.0003,0,-0.0004,-0.0004,-0.0004,0.0007,0.0008,0.0008,0.0009,-0.0025,-0.0026,-0.0027,0,0,0,0,0,0,0,0,0,0,0,0,0,0.0005,0.0005,-0.0003,-0.0003,-0.0003,-0.0004,-0.0004,-0.0004,0.0007,0.0008,0.0008,0.0009,-0.0024,-0.0026,-0.0027,0,0,0,0,0,0,0,0,0,0,0,0,0,0.0001,0.0005,-0.0003,0.0004,0.0004,-0.0004,-0.0004,-0.0004,0.0007,0.0008,0.0008,0.0009,-0.0024,-0.0026,-0.0028,-0.0053,0,0,-0.0034,-0.0035,0,0,0,0,0,0,0,0,0.0002,0.0001,0.0003,0.0003,0.0004,0.0004,-0.0013,-0.0022,0.0007,0.0005,0.0009,0.0009,-0.0018,-0.002,-0.0023,-0.0055,-0.0056,-0.0034,-0.0035,-0.0036,-0.0036,0,0,0,0,0,0,0,0.0002,0.0001,-0.0005,0.0003,0.0004,0.0006,0.0006,-0.0015,-0.0012,0.0005,0.0006,0.0008,-0.0018,-0.0022,-0.0024,-0.0056,-0.0034,-0.0036,-0.0037,-0.0037,-0.0136,-0.0137,0,0,0,0,0,0,0.0004,0.0001,-0.0005,-0.0005,0.0006,0.0005,0.0005,0.0002,-0.0011,-0.0012,0.0007,0.0009,-0.0019,-0.0022,-0.0025,-0.0058,-0.0036,-0.0038,-0.0039,-0.0134,-0.0136,-0.0138,0,0,0,0,0,0,0.0004,0.0003,-0.0005,-0.0,-0.0001,0.0005,0.0001,0.0002,0.0002,-0.0009,-0.001,0.0008,-0.0018,-0.0023,-0.0049,-0.006,-0.0039,-0.004,-0.0133,-0.0135,-0.0137,-0.0123,0,0,0,0,0,0,0.0004,0.0003,-0.0002,-0.0,-0.0001,-0.0019,0.0,0.0001,0.0003,0.0004,-0.0009,-0.0012,-0.0018,-0.0047,-0.0051,-0.0062,-0.0042,-0.0131,-0.0134,-0.0136,-0.0122,-0.0125,-0.0127,0,0,0,0,0,0.0004,-0.0012,-0.0002,-0.0003,-0.0007,-0.002,-0.0021,-0.0015,0.0002,-0.001,-0.0015,-0.0011,-0.0067,-0.0049,-0.0054,-0.0066,-0.0129,-0.0133,-0.0136,-0.0121,-0.0124,-0.0127,0,0,0,0,0,0,-0.0003,-0.0012,-0.0002,-0.0016,-0.0019,-0.0018,-0.0029,-0.0015,-0.0027,-0.0024,-0.0026,-0.003,-0.0059,-0.0072,-0.0051,-0.0106,-0.01,-0.0104,-0.0087,-0.009,-0.0092,-0.0049,-0.0043,0,0,0,0,0,-0.0008,-0.0026,-0.0024,-0.0034,-0.004,-0.0031,-0.0034,-0.0027,-0.0033,-0.0036,-0.0042,-0.0058,-0.0079,-0.009,-0.0113,-0.0141,-0.0109,-0.0156,-0.0158,-0.016,-0.0132,-0.0105,-0.01,-0.0148,-0.0148,-0.0148,0,0,-0.0007,-0.0018,-0.0024,-0.0038,-0.004,-0.0047,-0.0032,-0.0041,-0.0036,-0.004,-0.0049,-0.0068,-0.009,-0.0119,-0.0134,-0.0128,-0.0133,-0.0164,-0.0165,-0.0135,-0.0107,-0.0102,-0.0097,-0.015,-0.015,-0.015,0,0,-0.0024,-0.0033,-0.0052,-0.006,-0.0068,-0.0064,-0.0065,-0.0065,-0.006,-0.0075,-0.0074,-0.009,-0.013,-0.0135,-0.0145,-0.0178,-0.0148,-0.0203,-0.0176,-0.0151,-0.0145,-0.014,-0.009,-0.008,-0.0202,-0.0202,-0.0202,0,-0.002,-0.004,-0.0058,-0.0077,-0.0074,-0.007,-0.0072,-0.0075,-0.0079,-0.0063,-0.0081,-0.0101,-0.013,-0.013,-0.015,-0.0178,-0.015,-0.0157,-0.0149,-0.0143,-0.0137,-0.0087,-0.0077,-0.0202,-0.0202,-0.0202,-0.0202,0,-0.0044,-0.0058,-0.0074,-0.0091,-0.0096,-0.0102,-0.0099,-0.0096,-0.0088,-0.0076,-0.0075,-0.0107,-0.0103,-0.0138,-0.0156,-0.014,-0.0127,-0.0152,-0.0127,-0.0131,-0.0079,-0.0068,-0.0202,-0.0202,-0.0202,-0.0202,0,0,-0.003,-0.0078,-0.008,-0.0076,-0.0098,-0.0093,-0.0094,-0.0074,-0.0034,-0.0062,-0.0009,-0.0073,-0.0061,-0.0071,-0.0095,-0.0089,-0.0046,-0.0104,-0.0103,-0.0029,0.0038,0.0078,0.0094,-0.0066,-0.0064,-0.0063,0.0061,0,-0.0032,-0.0061,-0.0084,-0.0082,-0.0086,-0.0082,-0.0071,-0.0052,-0.0032,0.0013,-0.0001,0.0023,-0.0044,-0.0028,-0.0036,-0.0022,-0.0016,-0.0075,0.0009,0.0013,0.0069,0.0108,0.01,0.0213,0.0072,0.0074,0.0075,0,-0.0036,-0.0053,-0.0061,-0.0052,-0.005,-0.0046,0.0011,0.002,0.007,0.0095,0.0119,0.0126,0.0152,0.0083,0.0117,0.0088,0.0062,0.0053,0.0057,0.0107,0.0074,0.0189,0.0238,0.0048,0.0093,0.0091,0.009,0,0.0002,-0.0024,-0.0021,-0.0025,-0.0025,-0.0006,0.0006,0.0049,0.0096,0.0166,0.0234,0.0247,0.0301,0.0267,0.0253,0.0193,0.0303,0.0218,0.0228,0.0232,0.0252,0.0254,0.0153,0.0224,0.0224,0.0223,0.0223,0,0.0016,0.0027,-0.0001,0.0003,0.0045,0.0028,0.0094,0.0123,0.0189,0.0286,0.0286,0.039,0.0348,0.0403,0.0332,0.0362,0.0373,0.027,0.0275,0.0253,0.0254,0.011,0.0,0.0228,0.0227,0.0226,0.0225,0,0.0067,0.0036,0.0053,0.0051,0.0058,0.0093,0.0146,0.0208,0.0265,0.0402,0.044,0.0537,0.0636,0.0602,0.0602,0.0507,0.0421,0.048,0.0478,0.0479,0.0282,0.0175,0.02,0.0123,0.0518,0.052,0.0521,0,0.0098,0.0097,0.0101,0.0125,0.0127,0.0168,0.0211,0.0247,0.0328,0.0508,0.0597,0.0736,0.0863,0.0907,0.0795,0.0736,0.0536,0.0636,0.0495,0.0307,0.0189,0.0141,0.0068,0.0526,0.0527,0.0529,0.053,0,0.0165,0.0157,0.0172,0.0206,0.0243,0.03,0.0362,0.0434,0.0523,0.0652,0.0849,0.0965,0.1047,0.104,0.0963,0.0865,0.0513,0.0658,0.0455,0.02,0.0152,0.0068,0.0417,0.054,0.0539,0.0539,0.0538,0.0538,0.0236,0.0261,0.0267,0.0311,0.0357,0.0439,0.05,0.0594,0.0733,0.0939,0.1026,0.1225,0.1187,0.1112,0.0947,0.0619,0.0606,0.0449,0.0345,0.0323,0.021,0.0605,0.0728,0.0728,0.0728,0.0728,0.0728,0,0.0322,0.0332,0.0374,0.0429,0.0498,0.0496,0.0615,0.0693,0.0865,0.107,0.1235,0.1381,0.1221,0.1019,0.064,0.0338,0.0201,0.0152,0.0019,-0.0038,0.0308,0.026,0.0297,0.0297,0.0297,0.0298,0.0298,0.0298,0.037,0.0413,0.0421,0.054,0.0585,0.0682,0.0748,0.0875,0.1022,0.1294,0.1463,0.1609,0.1509,0.0714,0.0108,-0.0042,-0.0317,-0.0304,-0.044,-0.0307,-0.0291,-0.0275,-0.0349,-0.044,-0.0441,-0.0759,-0.0763,-0.0766]}],[{"header":{"parameterUnit":"m.s-1","parameterCategory":2,"la1":30.2991,"la2":30.254,"lo1":-89.0895,"lo2":-89.0444,"dy":0.0017,"dx":0.0017,"nx":28,"ny":28,"refTime":"2025-12-26T03:00:00:Z","depth":"2","parameterNumber":2,"parameterNumberName":"U-component_of_CURRENTS"},"data":[0,0,0,0,0,0,0,0,0,0,0,0,0,0,0,0,0,0,0,0,0,0,0,0,0,0,0,0,0,0,0,0,0,0,0,0,0,0,0,0,0,0,0,0,0,0,0,0,0,0,0,0,0,0,0,0,0,0,-0.0372,-0.0372,0,-0.0356,-0.0356,-0.0356,-0.0334,-0.0333,-0.0333,-0.0332,-0.0312,-0.0312,-0.0312,0,0,0,0,0,0,0,0,0,0,0,0,0,-0.0415,-0.0414,-0.0372,-0.0372,-0.0371,-0.0356,-0.0356,-0.0356,-0.0334,-0.0333,-0.0333,-0.0332,-0.0312,-0.0312,-0.0311,0,0,0,0,0,0,0,0,0,0,0,0,0,-0.0399,-0.0414,-0.0372,-0.0357,-0.0356,-0.0356,-0.0356,-0.0355,-0.0334,-0.0333,-0.0333,-0.0332,-0.0312,-0.0312,-0.0311,-0.0327,0,0,-0.0311,-0.0311,0,0,0,0,0,0,0,0,-0.04,-0.0398,-0.036,-0.0358,-0.0356,-0.0344,-0.0363,-0.0345,-0.0334,-0.0345,-0.0332,-0.0332,-0.0321,-0.0321,-0.0322,-0.0326,-0.0325,-0.0311,-0.0311,-0.0311,-0.0311,0,0,0,0,0,0,0,-0.0401,-0.0398,-0.0368,-0.036,-0.0357,-0.0361,-0.0358,-0.036,-0.0339,-0.0344,-0.0341,-0.0337,-0.0321,-0.0322,-0.0321,-0.0325,-0.0311,-0.0311,-0.0311,-0.0311,-0.0293,-0.0293,0,0,0,0,0,0,-0.0398,-0.0399,-0.0368,-0.0367,-0.0374,-0.0361,-0.0358,-0.0351,-0.0339,-0.0336,-0.0337,-0.0336,-0.0323,-0.0322,-0.0321,-0.0276,-0.0311,-0.0311,-0.0311,-0.0294,-0.0293,-0.0293,0,0,0,0,0,0,-0.0399,-0.0396,-0.0369,-0.0381,-0.0378,-0.0361,-0.0353,-0.0351,-0.0345,-0.0334,-0.0331,-0.0333,-0.0322,-0.0321,-0.0314,-0.0277,-0.0311,-0.0311,-0.0294,-0.0294,-0.0293,-0.0226,0,0,0,0,0,0,-0.0401,-0.0396,-0.0392,-0.0381,-0.0377,-0.036,-0.0354,-0.0351,-0.0342,-0.034,-0.033,-0.0327,-0.0321,-0.0314,-0.0313,-0.0278,-0.0311,-0.0295,-0.0294,-0.0293,-0.0229,-0.0224,-0.0219,0,0,0,0,0,-0.0402,-0.0393,-0.0392,-0.0388,-0.0371,-0.036,-0.0358,-0.0345,-0.0343,-0.0338,-0.0332,-0.0327,-0.0308,-0.0314,-0.0313,-0.0276,-0.0295,-0.0294,-0.0293,-0.0231,-0.0225,-0.0219,0,0,0,0,0,0,-0.0407,-0.0389,-0.0388,-0.0374,-0.0366,-0.0355,-0.0348,-0.0345,-0.0338,-0.0335,-0.0329,-0.0326,-0.0306,-0.0311,-0.0318,-0.0272,-0.0298,-0.0297,-0.0251,-0.0245,-0.024,-0.0198,-0.0311,0,0,0,0,0,-0.0408,-0.0395,-0.0385,-0.0373,-0.0369,-0.0362,-0.0357,-0.0349,-0.034,-0.0336,-0.0328,-0.0319,-0.0304,-0.0291,-0.0289,-0.0268,-0.0234,-0.0245,-0.0239,-0.0235,-0.0202,-0.0118,-0.0101,-0.029,-0.029,-0.029,0,0,-0.0405,-0.0395,-0.0386,-0.0373,-0.0367,-0.0353,-0.0357,-0.0344,-0.0323,-0.0336,-0.0309,-0.0308,-0.03,-0.027,-0.026,-0.0266,-0.0169,-0.0233,-0.0229,-0.0199,-0.0115,-0.0096,-0.0079,-0.0289,-0.0289,-0.0289,0,0,-0.0387,-0.0386,-0.0367,-0.0363,-0.0351,-0.0345,-0.0341,-0.033,-0.0314,-0.0299,-0.0293,-0.0263,-0.0262,-0.0224,-0.0211,-0.0178,-0.0153,-0.019,-0.0114,-0.0033,-0.0016,0.0,0.005,0.007,-0.0176,-0.0176,-0.0176,0,-0.0385,-0.036,-0.0361,-0.0347,-0.0333,-0.034,-0.0317,-0.0307,-0.0292,-0.026,-0.0283,-0.0225,-0.0227,-0.0149,-0.0136,-0.0159,-0.0123,-0.0135,-0.0021,-0.0005,0.001,0.0058,0.0079,-0.0173,-0.0173,-0.0173,-0.0174,0,-0.0351,-0.0336,-0.0327,-0.0306,-0.0296,-0.028,-0.0266,-0.0246,-0.0237,-0.0213,-0.015,-0.0143,-0.009,-0.0095,-0.0104,0.0005,-0.0009,-0.003,-0.0027,0.0035,0.0078,0.01,-0.0168,-0.0169,-0.017,-0.0171,0,0,-0.0335,-0.0306,-0.0304,-0.0284,-0.0272,-0.0256,-0.0218,-0.0169,-0.0118,-0.0101,-0.0019,0.0011,0.0034,0.0052,0.0054,0.0122,0.0242,0.0099,0.0102,0.0167,0.0412,0.0357,0.0374,0.0248,0.0252,0.0256,0.0394,0,-0.0307,-0.0265,-0.0257,-0.0217,-0.0194,-0.0183,-0.0141,-0.0098,-0.0062,0.0008,0.0053,0.0115,0.0084,0.0121,0.019,0.0223,0.0304,0.0206,0.0328,0.0332,0.0292,0.04,0.0358,0.0475,0.0415,0.0418,0.0421,0,-0.0272,-0.0249,-0.0202,-0.0153,-0.014,-0.0118,-0.0037,0.0001,0.0092,0.013,0.0213,0.0237,0.0344,0.0297,0.0441,0.0381,0.042,0.0441,0.0446,0.0397,0.0318,0.0406,0.0516,0.0456,0.0453,0.0451,0.0448,0,-0.0246,-0.0207,-0.0164,-0.0153,-0.0105,-0.0068,-0.0033,0.0047,0.0103,0.0222,0.0278,0.0391,0.0453,0.0533,0.0562,0.0525,0.0703,0.0653,0.0648,0.0642,0.0634,0.062,0.0791,0.079,0.079,0.079,0.0789,0,-0.0211,-0.0181,-0.015,-0.0128,-0.0068,-0.0038,0.0046,0.0102,0.0198,0.0282,0.035,0.0432,0.0519,0.0605,0.0631,0.0706,0.0769,0.0704,0.0699,0.0648,0.0635,0.0632,0.0612,0.0795,0.0794,0.0793,0.0792,0,-0.0186,-0.0166,-0.0122,-0.0072,-0.0055,-0.001,0.007,0.0136,0.0226,0.0339,0.0384,0.0501,0.0615,0.0678,0.0803,0.0791,0.0861,0.0871,0.0785,0.0767,0.073,0.0711,0.0909,0.0908,0.0908,0.0908,0.0908,0,-0.0166,-0.014,-0.0093,-0.0067,-0.0046,0.0017,0.0063,0.0146,0.0209,0.037,0.0422,0.0566,0.0662,0.0809,0.0834,0.0908,0.0897,0.0886,0.0812,0.0781,0.0755,0.0736,0.0718,0.0823,0.0822,0.0821,0.0821,0,-0.0135,-0.0123,-0.0092,-0.0038,0.0001,0.0053,0.0119,0.0168,0.0276,0.0372,0.051,0.0605,0.0738,0.081,0.0875,0.0883,0.0866,0.0871,0.0929,0.0772,0.0704,0.0676,0.0661,0.0815,0.0816,0.0816,0.0816,0.0817,-0.0121,-0.0097,-0.0057,-0.0005,0.0037,0.0089,0.0134,0.0205,0.0305,0.0459,0.054,0.0681,0.0734,0.0826,0.0834,0.0823,0.085,0.0822,0.0824,0.0826,0.0764,0.0697,0.0795,0.0796,0.0796,0.0796,0.0797,0,-0.0094,-0.0066,-0.002,0.0035,0.0078,0.0101,0.0172,0.0224,0.0327,0.0474,0.0607,0.0642,0.0733,0.0779,0.0772,0.0765,0.0738,0.0728,0.0715,0.0722,0.0727,0.0659,0.0663,0.0662,0.0662,0.0661,0,0,-0.0074,-0.0032,-0.0009,0.0059,0.0099,0.0152,0.0189,0.0271,0.0369,0.0489,0.0585,0.0734,0.0777,0.0728,0.0719,0.071,0.07,0.0671,0.0782,0.0774,0.0779,0.0787,0.0689,0,0,0,0,0]},{"header":{"parameterUnit":"m.s-1","parameterCategory":2,"la1":30.2991,"la2":30.254,"lo1":-89.0895,"lo2":-89.0444,"dy":0.0017,"dx":0.0017,"nx":28,"ny":28,"refTime":"2025-12-26T03:00:00:Z","depth":"2","parameterNumber":3,"parameterNumberName":"V-component_of_CURRENTS"},"data":[0,0,0,0,0,0,0,0,0,0,0,0,0,0,0,0,0,0,0,0,0,0,0,0,0,0,0,0,0,0,0,0,0,0,0,0,0,0,0,0,0,0,0,0,0,0,0,0,0,0,0,0,0,0,0,0,0,0,-0.0001,-0.0001,0,-0.0014,-0.0014,-0.0014,0.0002,0.0002,0.0002,0.0003,0.0051,0.0052,0.0053,0,0,0,0,0,0,0,0,0,0,0,0,0,0.0045,0.0044,-0.0001,-0.0001,-0.0002,-0.0014,-0.0014,-0.0014,0.0002,0.0002,0.0003,0.0003,0.005,0.0051,0.0053,0,0,0,0,0,0,0,0,0,0,0,0,0,0.003,0.0043,-0.0001,0.0003,0.0003,-0.0014,-0.0014,-0.0014,0.0002,0.0002,0.0003,0.0003,0.005,0.0051,0.0053,0.005,0,0,0.0057,0.0058,0,0,0,0,0,0,0,0,0.003,0.0028,0.0003,0.0003,0.0003,-0.0006,0.002,0.001,0.0001,0.0004,0.0003,0.0003,0.0036,0.0038,0.0037,0.0052,0.0054,0.0057,0.0058,0.0059,0.0059,0,0,0,0,0,0,0,0.0031,0.0029,-0.0004,0.0002,0.0002,0.0008,0.0007,0.0018,0.002,0.0004,0.0005,-0.0,0.0037,0.0035,0.0038,0.0055,0.0057,0.0058,0.0059,0.006,0.0082,0.0082,0,0,0,0,0,0,0.0027,0.003,-0.0004,-0.0004,0.0016,0.0006,0.0005,-0.0002,0.0018,0.0021,-0.0001,0.0,0.0033,0.0036,0.004,0.0058,0.0059,0.006,0.0061,0.0082,0.0082,0.0082,0,0,0,0,0,0,0.0028,0.0025,-0.0003,0.0011,0.0008,0.0005,-0.0003,-0.0002,0.0009,0.0014,0.0018,0.0011,0.0033,0.0038,0.006,0.0059,0.006,0.0062,0.0082,0.0082,0.0082,0.0081,0,0,0,0,0,0,0.003,0.0025,0.0027,0.001,0.0006,-0.0008,-0.0004,-0.0003,0.0003,0.0005,0.0025,0.0029,0.0034,0.0058,0.0061,0.0061,0.0063,0.0083,0.0082,0.0082,0.0081,0.0081,0.008,0,0,0,0,0,0.0031,0.0023,0.0027,0.0023,0.0006,-0.0008,-0.0009,-0.0007,0.0003,0.0006,0.0023,0.0029,0.0057,0.0059,0.0063,0.0063,0.0083,0.0082,0.0082,0.0082,0.0081,0.008,0,0,0,0,0,0,0.0042,0.0023,0.0027,0.0014,0.0008,-0.0006,-0.0005,-0.0001,0.0013,0.0022,0.0034,0.0039,0.0053,0.0059,0.0061,0.0066,0.0068,0.0068,0.0066,0.0066,0.0065,0.0064,0.0064,0,0,0,0,0,0.0045,0.0035,0.0022,0.0013,0.0012,0.0009,0.0007,0.0008,0.0012,0.0019,0.0034,0.0046,0.005,0.0061,0.0066,0.0078,0.0071,0.0077,0.0076,0.0076,0.0077,0.0066,0.0065,0.008,0.008,0.008,0,0,0.0044,0.0035,0.0028,0.0016,0.0014,0.0004,0.001,0.0008,0.0005,0.0023,0.0037,0.0048,0.0052,0.006,0.0066,0.0068,0.0066,0.0075,0.0075,0.0076,0.0065,0.0064,0.0063,0.0079,0.0079,0.008,0,0,0.0029,0.0033,0.0019,0.0016,0.0011,0.0009,0.0012,0.0009,0.0017,0.0027,0.0036,0.0047,0.0062,0.0061,0.0062,0.0062,0.0062,0.0065,0.0066,0.0056,0.0054,0.0053,0.0036,0.0034,0.0066,0.0066,0.0066,0,0.0032,0.0013,0.0014,0.0002,0.0002,0.0012,0.0003,0.0006,0.0014,0.0028,0.0033,0.0054,0.0057,0.0061,0.0057,0.006,0.0056,0.007,0.0055,0.0054,0.0053,0.0036,0.0033,0.0066,0.0066,0.0066,0.0066,0,-0.0,-0.0003,-0.001,-0.0019,-0.0018,-0.0022,-0.002,-0.0006,0.0012,0.0019,0.004,0.0044,0.0059,0.0055,0.0056,0.0052,0.0051,0.0054,0.0058,0.0051,0.0034,0.0031,0.0066,0.0066,0.0066,0.0066,0,0,-0.0025,-0.0031,-0.0031,-0.0023,-0.0025,-0.0024,-0.0022,-0.001,0.0014,0.0019,0.0043,0.0037,0.0057,0.0057,0.0062,0.0051,0.0031,0.0052,0.0051,0.0037,0.0007,-0.0057,-0.0067,0.0037,0.0037,0.0036,-0.0004,0,-0.0045,-0.006,-0.0061,-0.006,-0.006,-0.0041,-0.0033,-0.0016,0.0009,0.0039,0.0042,0.0065,0.0052,0.007,0.0054,0.0044,0.0025,0.0041,0.0015,0.0014,-0.0042,-0.0072,-0.0056,-0.0096,-0.0007,-0.0007,-0.0008,0,-0.008,-0.0077,-0.0083,-0.0056,-0.0053,-0.0048,-0.0006,0.0003,0.0039,0.0064,0.0084,0.0096,0.0087,0.0079,0.004,0.0055,0.0028,0.0011,0.001,-0.0052,-0.0057,-0.0074,-0.0105,-0.0013,-0.0012,-0.0012,-0.0012,0,-0.0092,-0.0089,-0.0085,-0.0082,-0.0058,-0.0042,-0.0021,0.0017,0.0051,0.0089,0.0121,0.0113,0.0121,0.0082,0.0038,0.0045,-0.0009,-0.0003,-0.0091,-0.0095,-0.0089,-0.0094,-0.0039,-0.0039,-0.0039,-0.0039,-0.0039,0,-0.0115,-0.0108,-0.0083,-0.008,-0.0048,-0.0033,0.0014,0.004,0.0092,0.0138,0.014,0.016,0.0124,0.0092,0.0044,-0.0043,-0.001,-0.0103,-0.0115,-0.0092,-0.0095,-0.0024,-0.0022,-0.0041,-0.004,-0.004,-0.004,0,-0.0134,-0.0125,-0.011,-0.0074,-0.0055,-0.0029,0.0041,0.0082,0.0124,0.0182,0.0195,0.0199,0.0142,0.0087,0.0023,-0.0039,-0.011,-0.0147,-0.0126,-0.0137,-0.019,-0.0187,-0.0252,-0.0255,-0.0257,-0.0259,-0.0261,0,-0.0147,-0.0144,-0.0101,-0.0072,-0.0051,-0.0002,0.0041,0.0096,0.0144,0.0198,0.0223,0.0191,0.0155,0.002,-0.0081,-0.0194,-0.0173,-0.0255,-0.0254,-0.0209,-0.0214,-0.0207,-0.0202,-0.0239,-0.024,-0.0242,-0.0242,0,-0.016,-0.0145,-0.0125,-0.0061,-0.0014,0.004,0.0104,0.0144,0.0207,0.0241,0.0264,0.0233,0.0103,-0.0022,-0.0183,-0.025,-0.024,-0.0285,-0.0232,-0.0202,-0.0204,-0.0206,-0.0199,-0.0252,-0.0251,-0.025,-0.025,-0.0249,-0.016,-0.0142,-0.0101,-0.0038,0.002,0.0087,0.0135,0.0193,0.025,0.0317,0.0277,0.025,0.0093,-0.0122,-0.0248,-0.0344,-0.0347,-0.0367,-0.036,-0.0352,-0.0358,-0.0366,-0.0445,-0.0445,-0.0445,-0.0445,-0.0445,0,-0.0148,-0.0118,-0.0069,0.0009,0.0079,0.0111,0.0188,0.0237,0.0296,0.0337,0.0346,0.0193,0.003,-0.0106,-0.0274,-0.0414,-0.0377,-0.0432,-0.0348,-0.034,-0.0332,-0.0332,-0.0415,-0.0415,-0.0415,-0.0415,0,0,-0.0137,-0.0092,-0.0061,0.0055,0.012,0.0215,0.0259,0.0314,0.0359,0.0373,0.0372,0.0303,0.0086,-0.0034,-0.0217,-0.0296,-0.0271,-0.0306,-0.0321,-0.0193,-0.0183,-0.0297,-0.029,0,0,0,0,0]}],[{"header":{"parameterUnit":"m.s-1","parameterCategory":2,"la1":30.2991,"la2":30.254,"lo1":-89.0895,"lo2":-89.0444,"dy":0.0017,"dx":0.0017,"nx":28,"ny":28,"refTime":"2025-12-26T03:00:00:Z","depth":"4","parameterNumber":2,"parameterNumberName":"U-component_of_CURRENTS"},"data":[0,0,0,0,0,0,0,0,0,0,0,0,0,0,0,0,0,0,0,0,0,0,0,0,0,0,0,0,0,0,0,0,0,0,0,0,0,0,0,0,0,0,0,0,0,0,0,0,0,0,0,0,0,0,0,0,0,0,0.0018,0.0018,0,0.0004,0.0004,0.0004,0.0,0.0,0.0,0.0,-0.0021,-0.0021,-0.0022,0,0,0,0,0,0,0,0,0,0,0,0,0,0.0042,0.0042,0.0018,0.0018,0.0018,0.0004,0.0004,0.0004,0.0,0.0,0.0,0.0,-0.002,-0.0021,-0.0022,0,0,0,0,0,0,0,0,0,0,0,0,0,0.0031,0.0042,0.0018,0.0014,0.0013,0.0004,0.0004,0.0004,0.0,0.0,0.0,0.0,-0.002,-0.0021,-0.0022,-0.003,0,0,-0.0025,-0.0025,0,0,0,0,0,0,0,0,0.0031,0.003,0.0015,0.0014,0.0014,0.0004,0.0005,-0.0008,0.0,0.0005,0.0,0.0001,-0.0013,-0.0015,-0.0017,-0.0031,-0.0032,-0.0025,-0.0026,-0.0026,-0.0026,0,0,0,0,0,0,0,0.0032,0.003,0.0013,0.0015,0.0014,0.0013,0.0012,0.0002,-0.0004,0.0005,0.0005,0.0003,-0.0014,-0.0016,-0.0018,-0.0032,-0.0025,-0.0026,-0.0026,-0.0027,-0.0059,-0.0059,0,0,0,0,0,0,0.0033,0.0031,0.0013,0.0012,0.0023,0.0013,0.0011,0.0007,-0.0004,-0.0006,0.0003,0.0003,-0.0015,-0.0017,-0.0019,-0.0031,-0.0026,-0.0027,-0.0027,-0.0059,-0.0059,-0.006,0,0,0,0,0,0,0.0034,0.0031,0.0014,0.0021,0.0019,0.0012,0.0008,0.0007,0.0005,-0.0006,-0.0007,0.0002,-0.0015,-0.0017,-0.0026,-0.0031,-0.0027,-0.0028,-0.0058,-0.0059,-0.0059,-0.0053,0,0,0,0,0,0,0.0034,0.0032,0.0033,0.0021,0.0019,0.0009,0.0008,0.0006,0.0004,0.0004,-0.0007,-0.0009,-0.0015,-0.0025,-0.0027,-0.0032,-0.0029,-0.0058,-0.0059,-0.0059,-0.0053,-0.0053,-0.0053,0,0,0,0,0,0.0035,0.0034,0.0033,0.0031,0.0019,0.0009,0.0008,0.0004,0.0004,0.0003,-0.0004,-0.0008,-0.003,-0.0026,-0.0029,-0.0034,-0.0058,-0.0058,-0.0059,-0.0053,-0.0053,-0.0053,0,0,0,0,0,0,0.0043,0.0033,0.0032,0.0027,0.002,0.0009,0.0009,0.0005,-0.0002,0.0,-0.0011,-0.0013,-0.0024,-0.003,-0.0025,-0.0046,-0.0045,-0.0047,-0.004,-0.004,-0.004,-0.0025,-0.003,0,0,0,0,0,0.0045,0.0042,0.0033,0.0029,0.0027,0.0019,0.0016,0.0012,0.0004,0.0002,-0.0007,-0.0017,-0.003,-0.0035,-0.0045,-0.0055,-0.0046,-0.0061,-0.0061,-0.0062,-0.0052,-0.005,-0.0049,-0.0062,-0.0062,-0.0062,0,0,0.0046,0.0041,0.0039,0.0031,0.0026,0.0021,0.0017,0.0013,0.0009,-0.0,-0.0007,-0.0018,-0.0033,-0.0044,-0.005,-0.0049,-0.0052,-0.0063,-0.0062,-0.0052,-0.0051,-0.0049,-0.0048,-0.0062,-0.0062,-0.0062,0,0,0.0045,0.0043,0.0041,0.0036,0.0031,0.0026,0.0025,0.0015,0.0013,0.0005,-0.0006,-0.0015,-0.0033,-0.0044,-0.0052,-0.006,-0.0054,-0.0068,-0.0057,-0.0056,-0.0055,-0.0053,-0.0031,-0.0028,-0.0068,-0.0068,-0.0068,0,0.0047,0.0044,0.0039,0.0036,0.0033,0.0028,0.0025,0.0019,0.0007,0.0007,0.0005,-0.0017,-0.0031,-0.0045,-0.0049,-0.006,-0.005,-0.0054,-0.0055,-0.0054,-0.0052,-0.003,-0.0026,-0.0068,-0.0068,-0.0068,-0.0068,0,0.0043,0.0043,0.0041,0.0036,0.0032,0.0029,0.0021,0.0019,0.0016,0.0012,0.0003,-0.0012,-0.002,-0.0034,-0.0044,-0.0048,-0.004,-0.0055,-0.0051,-0.0051,-0.0027,-0.0023,-0.0068,-0.0068,-0.0068,-0.0068,0,0,0.0037,0.0039,0.0038,0.0042,0.0034,0.0032,0.0025,0.0021,0.0024,0.0014,0.0019,-0.0007,-0.0005,-0.0014,-0.003,-0.0032,-0.0017,-0.0038,-0.0038,-0.0009,0.0005,0.0051,0.0059,-0.0033,-0.0033,-0.0032,0.0021,0,0.0036,0.0037,0.0035,0.0036,0.0037,0.0034,0.0029,0.0026,0.0025,0.0029,0.0019,0.0019,-0.0002,0.0,-0.0007,-0.0015,-0.0009,-0.0029,-0.0005,-0.0004,0.0041,0.0064,-0.0031,0.0024,0.0025,0.0025,0.0026,0,0.0028,0.0034,0.0036,0.0046,0.0046,0.0045,0.0049,0.0047,0.0047,0.0051,0.0051,0.0048,0.0047,0.003,0.0031,0.0019,0.0018,0.0012,0.0014,0.0059,0.0049,0.002,0.0032,0.0032,0.0031,0.0031,0.0031,0,0.0025,0.0033,0.0039,0.0039,0.0045,0.0049,0.0054,0.0054,0.0061,0.0073,0.0088,0.0081,0.0093,0.0081,0.0079,0.0055,0.009,0.0053,0.0096,0.01,0.0039,0.0036,0.0061,0.0061,0.0061,0.006,0.006,0,0.0019,0.0024,0.0042,0.0044,0.0056,0.0059,0.0072,0.0076,0.0091,0.011,0.0106,0.0126,0.0106,0.0122,0.0104,0.0131,0.0114,0.0116,0.0119,0.0041,0.0038,0.0042,0.0039,0.0062,0.0062,0.0062,0.0061,0,0.0006,0.0016,0.0026,0.0045,0.0053,0.0061,0.0087,0.01,0.0116,0.0144,0.0155,0.0171,0.0201,0.0196,0.0194,0.0181,0.0188,0.0199,0.0149,0.0145,0.0188,0.0185,0.0249,0.0251,0.0252,0.0254,0.0255,0,-0.0002,0.0002,0.0027,0.0039,0.0049,0.0068,0.0084,0.0106,0.0127,0.0173,0.0192,0.0236,0.0246,0.0291,0.0274,0.028,0.0264,0.0272,0.0199,0.0213,0.0209,0.0202,0.0197,0.0258,0.0259,0.0259,0.026,0,-0.0016,-0.0008,0.0003,0.0033,0.0054,0.0081,0.0112,0.0132,0.0167,0.0183,0.0238,0.0264,0.0311,0.0317,0.0344,0.0329,0.0265,0.029,0.0284,0.0216,0.0225,0.0218,0.021,0.0266,0.0265,0.0264,0.0264,0,-0.0029,-0.0022,-0.0,0.0027,0.0055,0.0095,0.011,0.0155,0.0183,0.0235,0.0255,0.0296,0.0318,0.0346,0.0359,0.0373,0.0346,0.0314,0.0306,0.0299,0.029,0.0307,0.0394,0,0,0,0,0,-0.004,-0.0024,-0.0002,0.0036,0.0067,0.0091,0.0132,0.015,0.0187,0.023,0.0246,0.029,0.0334,0.035,0.0371,0.0372,0.034,0.0395,0.0296,0.0301,0.0293,0.0277,0,0,0,0,0,0,-0.0046,-0.0029,-0.0006,0.0042,0.0074,0.0115,0.0143,0.0169,0.0198,0.0231,0.0256,0.0282,0.0322,0.0322,0.0367,0.0373,0.0309,0.0419,0.0419,0.0305,0.0298,0.0292,0.0273,0,0,0,0,0]},{"header":{"parameterUnit":"m.s-1","parameterCategory":2,"la1":30.2991,"la2":30.254,"lo1":-89.0895,"lo2":-89.0444,"dy":0.0017,"dx":0.0017,"nx":28,"ny":28,"refTime":"2025-12-26T03:00:00:Z","depth":"4","parameterNumber":3,"parameterNumberName":"V-component_of_CURRENTS"},"data":[0,0,0,0,0,0,0,0,0,0,0,0,0,0,0,0,0,0,0,0,0,0,0,0,0,0,0,0,0,0,0,0,0,0,0,0,0,0,0,0,0,0,0,0,0,0,0,0,0,0,0,0,0,0,0,0,0,0,-0.0212,-0.0212,0,-0.0225,-0.0226,-0.0226,-0.0238,-0.0238,-0.0238,-0.0238,-0.0282,-0.0283,-0.0284,0,0,0,0,0,0,0,0,0,0,0,0,0,-0.0189,-0.019,-0.0212,-0.0212,-0.0212,-0.0225,-0.0226,-0.0226,-0.0238,-0.0238,-0.0238,-0.0238,-0.0282,-0.0283,-0.0284,0,0,0,0,0,0,0,0,0,0,0,0,0,-0.0201,-0.019,-0.0212,-0.0219,-0.022,-0.0225,-0.0226,-0.0226,-0.0238,-0.0238,-0.0238,-0.0238,-0.0281,-0.0283,-0.0284,-0.0292,0,0,-0.0289,-0.029,0,0,0,0,0,0,0,0,-0.0201,-0.0202,-0.0218,-0.0219,-0.022,-0.0229,-0.0233,-0.0249,-0.0238,-0.0232,-0.0238,-0.0238,-0.0267,-0.0269,-0.0272,-0.0294,-0.0296,-0.0289,-0.029,-0.0291,-0.0292,0,0,0,0,0,0,0,-0.02,-0.0202,-0.0218,-0.0218,-0.0219,-0.0219,-0.0221,-0.0236,-0.025,-0.0233,-0.0233,-0.0233,-0.0267,-0.0271,-0.0274,-0.0297,-0.0289,-0.0291,-0.0292,-0.0293,-0.0338,-0.0338,0,0,0,0,0,0,-0.0197,-0.0201,-0.0218,-0.0218,-0.0209,-0.0219,-0.0222,-0.0227,-0.0249,-0.0252,-0.0233,-0.0234,-0.0268,-0.0272,-0.0275,-0.0296,-0.0291,-0.0293,-0.0294,-0.0338,-0.0338,-0.0339,0,0,0,0,0,0,-0.0196,-0.0198,-0.0217,-0.0209,-0.0211,-0.022,-0.0225,-0.0227,-0.0238,-0.0249,-0.0253,-0.0243,-0.0268,-0.0273,-0.0296,-0.0298,-0.0293,-0.0295,-0.0338,-0.0338,-0.0338,-0.0332,0,0,0,0,0,0,-0.0196,-0.0198,-0.0206,-0.0209,-0.0212,-0.0224,-0.0225,-0.0227,-0.0237,-0.0238,-0.0258,-0.0262,-0.0269,-0.0294,-0.0298,-0.03,-0.0296,-0.0337,-0.0338,-0.0338,-0.0332,-0.0332,-0.0332,0,0,0,0,0,-0.0195,-0.0201,-0.0206,-0.0209,-0.022,-0.0224,-0.0226,-0.0232,-0.0237,-0.0242,-0.0258,-0.0262,-0.0299,-0.0295,-0.03,-0.0303,-0.0337,-0.0338,-0.0338,-0.0331,-0.0332,-0.0332,0,0,0,0,0,0,-0.0198,-0.0203,-0.0209,-0.0218,-0.0223,-0.0226,-0.023,-0.0236,-0.0252,-0.0257,-0.0269,-0.0274,-0.0293,-0.0301,-0.0297,-0.0317,-0.0317,-0.0319,-0.031,-0.0311,-0.0311,-0.0312,-0.0298,0,0,0,0,0,-0.0202,-0.0206,-0.0212,-0.0219,-0.0222,-0.0229,-0.0233,-0.0238,-0.0249,-0.0256,-0.0271,-0.0286,-0.0298,-0.0307,-0.032,-0.0335,-0.0346,-0.0339,-0.0339,-0.0339,-0.0343,-0.0363,-0.0366,-0.034,-0.034,-0.034,0,0,-0.0204,-0.0207,-0.021,-0.022,-0.0224,-0.0228,-0.0232,-0.0239,-0.0245,-0.0259,-0.0277,-0.029,-0.0302,-0.0316,-0.0325,-0.0325,-0.035,-0.034,-0.0339,-0.0344,-0.0364,-0.0367,-0.0369,-0.0341,-0.0341,-0.0341,0,0,-0.0201,-0.0215,-0.0214,-0.0219,-0.0226,-0.0231,-0.0235,-0.0245,-0.0253,-0.027,-0.028,-0.0296,-0.0317,-0.0325,-0.0331,-0.0342,-0.0351,-0.0343,-0.0346,-0.0365,-0.0367,-0.0369,-0.038,-0.0383,-0.0343,-0.0343,-0.0343,0,-0.0204,-0.0206,-0.0215,-0.0214,-0.0219,-0.0233,-0.0235,-0.0245,-0.0262,-0.0272,-0.0276,-0.0309,-0.0319,-0.0335,-0.0336,-0.0342,-0.0353,-0.0343,-0.0365,-0.0367,-0.037,-0.038,-0.0384,-0.0342,-0.0342,-0.0342,-0.0343,0,-0.0196,-0.0203,-0.0202,-0.0208,-0.0216,-0.0221,-0.0233,-0.0245,-0.0259,-0.0271,-0.0295,-0.0312,-0.0332,-0.0333,-0.0338,-0.0358,-0.036,-0.0363,-0.0364,-0.0372,-0.0382,-0.0386,-0.0342,-0.0342,-0.0342,-0.0342,0,0,-0.0195,-0.0196,-0.0198,-0.02,-0.0215,-0.022,-0.0231,-0.0247,-0.0257,-0.028,-0.0297,-0.0316,-0.0333,-0.0341,-0.0351,-0.0365,-0.0386,-0.0371,-0.0372,-0.038,-0.0426,-0.0392,-0.0393,-0.0395,-0.0395,-0.0396,-0.0425,0,-0.0189,-0.0183,-0.0189,-0.0194,-0.0196,-0.0213,-0.0221,-0.0239,-0.0259,-0.0281,-0.0304,-0.0325,-0.0333,-0.0344,-0.0362,-0.0383,-0.0398,-0.0378,-0.0419,-0.042,-0.0388,-0.0397,-0.0399,-0.0428,-0.0429,-0.0429,-0.043,0,-0.0182,-0.018,-0.0179,-0.0187,-0.019,-0.0198,-0.0219,-0.0229,-0.026,-0.0275,-0.0305,-0.0328,-0.0358,-0.0361,-0.0406,-0.0395,-0.0412,-0.0425,-0.0427,-0.0401,-0.0393,-0.042,-0.0437,-0.0436,-0.0436,-0.0435,-0.0435,0,-0.0177,-0.0177,-0.0176,-0.018,-0.019,-0.0196,-0.0206,-0.0231,-0.024,-0.0278,-0.0291,-0.0334,-0.0354,-0.0389,-0.0418,-0.0417,-0.0463,-0.0464,-0.045,-0.0447,-0.0472,-0.047,-0.0496,-0.0496,-0.0496,-0.0496,-0.0496,0,-0.0171,-0.0173,-0.0174,-0.0176,-0.0179,-0.0191,-0.0202,-0.0216,-0.0238,-0.0251,-0.0291,-0.0307,-0.0363,-0.0395,-0.0423,-0.0446,-0.0469,-0.0453,-0.0455,-0.0468,-0.0464,-0.0475,-0.0472,-0.0497,-0.0497,-0.0497,-0.0496,0,-0.0168,-0.0167,-0.0169,-0.0175,-0.0178,-0.0182,-0.0193,-0.02,-0.0221,-0.0239,-0.0251,-0.0295,-0.0331,-0.0378,-0.043,-0.0443,-0.0472,-0.0473,-0.048,-0.0481,-0.0444,-0.0441,-0.0466,-0.0465,-0.0464,-0.0463,-0.0463,0,-0.0165,-0.0165,-0.0168,-0.0166,-0.0171,-0.0176,-0.0178,-0.0193,-0.0199,-0.0225,-0.0232,-0.0272,-0.0301,-0.0343,-0.0398,-0.0449,-0.045,-0.0467,-0.0461,-0.0443,-0.0442,-0.044,-0.0438,-0.0461,-0.0461,-0.0461,-0.0461,0,-0.0163,-0.0166,-0.0165,-0.0158,-0.0159,-0.016,-0.0164,-0.0163,-0.0178,-0.0197,-0.0201,-0.0231,-0.0268,-0.0318,-0.0357,-0.0394,-0.046,-0.0459,-0.0461,-0.0456,-0.0438,-0.0438,-0.0436,-0.0458,-0.0459,-0.0459,-0.0459,0,-0.0163,-0.0158,-0.0154,-0.0149,-0.0147,-0.0143,-0.0146,-0.0143,-0.0147,-0.0167,-0.0167,-0.021,-0.0243,-0.029,-0.0328,-0.036,-0.0367,-0.0374,-0.0381,-0.0384,-0.035,-0.0315,-0.0301,0,0,0,0,0,-0.0161,-0.0151,-0.0143,-0.0135,-0.0132,-0.0132,-0.0136,-0.014,-0.015,-0.0139,-0.0148,-0.0174,-0.0222,-0.0254,-0.0276,-0.0327,-0.0387,-0.0355,-0.0402,-0.0443,-0.0446,-0.0416,0,0,0,0,0,0,-0.0156,-0.0147,-0.0138,-0.0125,-0.0118,-0.0115,-0.0116,-0.0124,-0.0117,-0.0128,-0.015,-0.0168,-0.0219,-0.02,-0.0271,-0.0285,-0.0315,-0.0385,-0.0385,-0.0441,-0.0444,-0.0447,-0.0417,0,0,0,0,0]}]]